GECAM-A (47234 NORAD) Tracking and Keplerian Element Data
This shows tracking and keplerian element data for the satellite.
Feedback or suggestion? Click here.
Element | Value |
Catalog | 47234 |
Name | GECAM-A |
Epoch Orbit | 624 |
Epoch Day | 20.94150232 |
Epoch Year | 2021 |
RAAN | 110.9942 |
Inclination | 28.9976 |
Eccentricity | 0.0012587 |
Argument of Perigee | 2.5936 |
Mean Anonmoly | 357.4724 |
Mean Motion | 14.90671184 |
Decay Rate | 2.35E-06 |
L1 | 1 47234U 20094A 21020.94150232 .00000235 00000-0 96501-5 0 9992 |
L2 | 2 47234 28.9976 110.9942 0012587 2.5936 357.4724 14.90671184 6242 |
Live tracking and technical data element details for GECAM-A (NORAD 47234). GECAM-A can be tracked NOW for your location showing map with azimuth and elevation plus other details from your city location.
Track the satellite on the map from your city or location and see movement details for azimuth, elevation, latitude, longitude, range, height, and movement on the map or in text.
IsCatalogInMostPopularTable: catalog: 47234, numindb: 22
Update: records affected: 1
GetName: 47234 GECAM-A
Hit Count: updated at: Sat, 23 Jan 2021 18:39:56 GMT